Station Historical Data
Daily Summary for June 7, 2017 Units:  English    Metric   Both
Next Day »
Daily Weekly Monthly Yearly Custom
  High: Low: Average:
Temperature: 76.9 °F 60.8 °F 67.5 °F
Dew Point: 48.2 °F 40.0 °F 44.3 °F
Humidity: 59% 30% 44%
Wind Speed: 14.0mph 0.0mph 3.7mph
Wind Gust: 16.0mph - -
Wind- - SSE
Pressure: 29.88 in 29.83 in -
Precipitation: 0.00 in    
Historical Graphs
 
 
Tabular Data for June 7, 2017
Time Temperature Dew Point Pressure Wind Wind Speed Wind Gust Humidity Rainfall Rate (Hourly) solar Conditions
00:03 65.1 °F 44.4 °F 29.86 in ESE 2.0 mph 8.0 mph 47% 0.00 in 0.00 W/m2
00:08 65.0 °F 44.3 °F 29.86 in Calm   12.0 mph 47% 0.00 in 0.00 W/m2
00:13 65.0 °F 44.3 °F 29.86 in ESE 6.0 mph 11.0 mph 47% 0.00 in 0.00 W/m2
00:18 64.9 °F 43.7 °F 29.86 in ESE 6.0 mph 12.0 mph 46% 0.00 in 0.00 W/m2
00:23 64.8 °F 44.1 °F 29.86 in ESE 4.0 mph 11.0 mph 47% 0.00 in 0.00 W/m2
00:28 64.8 °F 44.1 °F 29.86 in ESE 4.0 mph 12.0 mph 47% 0.00 in 0.00 W/m2
00:33 64.7 °F 43.5 °F 29.86 in ESE 9.0 mph 11.0 mph 46% 0.00 in 0.00 W/m2
00:38 64.6 °F 43.9 °F 29.86 in ESE 1.0 mph 8.0 mph 47% 0.00 in 0.00 W/m2
00:43 64.5 °F 43.3 °F 29.86 in ESE 4.0 mph 11.0 mph 46% 0.00 in 0.00 W/m2
00:49 64.5 °F 43.8 °F 29.86 in Calm   11.0 mph 47% 0.00 in 0.00 W/m2
00:54 64.4 °F 43.2 °F 29.86 in ESE 8.0 mph 12.0 mph 46% 0.00 in 0.00 W/m2
00:59 64.3 °F 43.7 °F 29.86 in ESE 8.0 mph 12.0 mph 47% 0.00 in 0.00 W/m2
01:04 64.3 °F 43.1 °F 29.86 in East 4.0 mph 13.0 mph 46% 0.00 in 0.00 W/m2
01:09 64.2 °F 43.0 °F 29.86 in East 7.0 mph 13.0 mph 46% 0.00 in 0.00 W/m2
01:14 64.2 °F 43.0 °F 29.86 in East 1.0 mph 12.0 mph 46% 0.00 in 0.00 W/m2
01:19 64.2 °F 43.0 °F 29.86 in East 6.0 mph 11.0 mph 46% 0.00 in 0.00 W/m2
01:24 64.1 °F 43.5 °F 29.86 in ESE 4.0 mph 12.0 mph 47% 0.00 in 0.00 W/m2
01:29 64.1 °F 42.9 °F 29.86 in ESE 7.0 mph 11.0 mph 46% 0.00 in 0.00 W/m2
01:34 64.1 °F 43.5 °F 29.86 in East 2.0 mph 11.0 mph 47% 0.00 in 0.00 W/m2
01:39 64.0 °F 42.8 °F 29.86 in ESE 4.0 mph 16.0 mph 46% 0.00 in 0.00 W/m2
01:44 63.9 °F 42.7 °F 29.86 in ESE 7.0 mph 13.0 mph 46% 0.00 in 0.00 W/m2
01:49 63.9 °F 43.3 °F 29.86 in ESE 5.0 mph 12.0 mph 47% 0.00 in 0.00 W/m2
01:54 63.8 °F 42.6 °F 29.85 in East 4.0 mph 12.0 mph 46% 0.00 in 0.00 W/m2
01:59 63.8 °F 42.6 °F 29.85 in ESE 5.0 mph 13.0 mph 46% 0.00 in 0.00 W/m2
02:04 63.8 °F 42.6 °F 29.85 in ESE 2.0 mph 11.0 mph 46% 0.00 in 0.00 W/m2
02:09 63.7 °F 42.5 °F 29.85 in East 5.0 mph 13.0 mph 46% 0.00 in 0.00 W/m2
02:14 63.6 °F 42.5 °F 29.85 in East 5.0 mph 12.0 mph 46% 0.00 in 0.00 W/m2
02:19 63.5 °F 42.4 °F 29.85 in ESE 2.0 mph 11.0 mph 46% 0.00 in 0.00 W/m2
02:24 63.5 °F 42.9 °F 29.84 in ESE 4.0 mph 13.0 mph 47% 0.00 in 0.00 W/m2
02:29 63.4 °F 42.8 °F 29.84 in ESE 6.0 mph 14.0 mph 47% 0.00 in 0.00 W/m2
02:34 63.3 °F 42.8 °F 29.84 in ESE 4.0 mph 13.0 mph 47% 0.00 in 0.00 W/m2
02:39 63.2 °F 42.1 °F 29.84 in ESE 6.0 mph 13.0 mph 46% 0.00 in 0.00 W/m2
02:44 63.2 °F 42.7 °F 29.84 in ESE 9.0 mph 14.0 mph 47% 0.00 in 0.00 W/m2
02:49 63.1 °F 42.6 °F 29.84 in East 2.0 mph 15.0 mph 47% 0.00 in 0.00 W/m2
02:54 63.0 °F 42.5 °F 29.84 in ESE 14.0 mph 15.0 mph 47% 0.00 in 0.00 W/m2
02:59 62.9 °F 42.4 °F 29.84 in ESE 6.0 mph 14.0 mph 47% 0.00 in 0.00 W/m2
03:04 62.9 °F 42.4 °F 29.84 in ESE 5.0 mph 13.0 mph 47% 0.00 in 0.00 W/m2
03:09 62.9 °F 42.4 °F 29.84 in ESE 4.0 mph 13.0 mph 47% 0.00 in 0.00 W/m2
03:14 62.8 °F 42.3 °F 29.84 in ESE 8.0 mph 13.0 mph 47% 0.00 in 0.00 W/m2
03:19 62.9 °F 42.4 °F 29.84 in ESE 2.0 mph 13.0 mph 47% 0.00 in 0.00 W/m2
03:24 62.8 °F 42.3 °F 29.83 in ESE 4.0 mph 11.0 mph 47% 0.00 in 0.00 W/m2
03:29 62.8 °F 41.7 °F 29.83 in East 7.0 mph 12.0 mph 46% 0.00 in 0.00 W/m2
03:34 62.7 °F 42.2 °F 29.83 in ESE 5.0 mph 16.0 mph 47% 0.00 in 0.00 W/m2
03:39 62.7 °F 42.2 °F 29.83 in ESE 8.0 mph 14.0 mph 47% 0.00 in 0.00 W/m2
03:44 62.6 °F 42.1 °F 29.83 in East 9.0 mph 13.0 mph 47% 0.00 in 0.00 W/m2
03:49 62.5 °F 42.0 °F 29.83 in ESE 2.0 mph 11.0 mph 47% 0.00 in 0.00 W/m2
03:54 62.5 °F 42.0 °F 29.83 in ESE 6.0 mph 8.0 mph 47% 0.00 in 0.00 W/m2
03:59 62.4 °F 42.5 °F 29.83 in ESE 2.0 mph 13.0 mph 48% 0.00 in 0.00 W/m2
04:04 62.3 °F 41.8 °F 29.83 in East 5.0 mph 11.0 mph 47% 0.00 in 0.00 W/m2
04:09 62.2 °F 41.7 °F 29.83 in SE 9.0 mph 15.0 mph 47% 0.00 in 0.00 W/m2
04:14 62.1 °F 41.7 °F 29.83 in Calm   12.0 mph 47% 0.00 in 0.00 W/m2
04:19 62.0 °F 41.0 °F 29.83 in ESE 8.0 mph 12.0 mph 46% 0.00 in 0.00 W/m2
04:24 62.0 °F 41.6 °F 29.83 in ESE 2.0 mph 12.0 mph 47% 0.00 in 0.00 W/m2
04:29 61.9 °F 41.5 °F 29.83 in Calm   14.0 mph 47% 0.00 in 0.00 W/m2
04:34 61.8 °F 40.8 °F 29.83 in Calm   13.0 mph 46% 0.00 in 0.00 W/m2
04:39 61.8 °F 41.4 °F 29.83 in ESE 2.0 mph 11.0 mph 47% 0.00 in 0.00 W/m2
04:44 61.7 °F 41.3 °F 29.83 in ESE 6.0 mph 13.0 mph 47% 0.00 in 0.00 W/m2
04:49 61.7 °F 41.3 °F 29.83 in East 1.0 mph 12.0 mph 47% 0.00 in 0.00 W/m2
04:54 61.6 °F 41.7 °F 29.83 in ESE 4.0 mph 11.0 mph 48% 0.00 in 0.00 W/m2
04:59 61.5 °F 41.1 °F 29.83 in Calm   11.0 mph 47% 0.00 in 0.00 W/m2
05:04 61.5 °F 41.1 °F 29.83 in Calm   12.0 mph 47% 0.00 in 0.00 W/m2
05:09 61.4 °F 41.0 °F 29.83 in ESE 5.0 mph 9.0 mph 47% 0.00 in 0.00 W/m2
05:10 61.4 °F 41.0 °F 29.83 in ESE 6.0 mph 9.0 mph 47% 0.00 in 0.00 W/m2
05:15 61.3 °F 40.9 °F 29.83 in ESE 6.0 mph 11.0 mph 47% 0.00 in 0.00 W/m2
05:20 61.3 °F 41.5 °F 29.83 in ESE 4.0 mph 8.0 mph 48% 0.00 in 0.00 W/m2
05:25 61.3 °F 40.9 °F 29.83 in SE 2.0 mph 11.0 mph 47% 0.00 in 0.00 W/m2
05:30 61.2 °F 40.8 °F 29.83 in ESE 4.0 mph 14.0 mph 47% 0.00 in 0.00 W/m2
05:35 61.1 °F 40.7 °F 29.83 in ESE 1.0 mph 13.0 mph 47% 0.00 in 5.00 W/m2
05:40 61.1 °F 40.7 °F 29.83 in ESE 8.0 mph 12.0 mph 47% 0.00 in 9.00 W/m2
05:45 61.1 °F 40.7 °F 29.83 in ESE 6.0 mph 15.0 mph 47% 0.00 in 12.00 W/m2
05:50 61.0 °F 40.7 °F 29.83 in ESE 6.0 mph 11.0 mph 47% 0.00 in 18.00 W/m2
05:52 61.0 °F 40.7 °F 29.83 in ESE 2.0 mph 9.0 mph 47% 0.00 in 19.00 W/m2
05:57 61.0 °F 40.1 °F 29.83 in ESE 7.0 mph 13.0 mph 46% 0.00 in 23.00 W/m2
06:02 60.9 °F 40.0 °F 29.83 in ESE 7.0 mph 11.0 mph 46% 0.00 in 28.00 W/m2
06:07 60.9 °F 40.0 °F 29.83 in ESE 1.0 mph 9.0 mph 46% 0.00 in 32.00 W/m2
06:12 60.9 °F 40.5 °F 29.83 in ESE 5.0 mph 12.0 mph 47% 0.00 in 40.00 W/m2
06:17 60.9 °F 40.0 °F 29.83 in ESE 7.0 mph 12.0 mph 46% 0.00 in 53.00 W/m2
06:22 60.9 °F 40.5 °F 29.83 in ESE 4.0 mph 11.0 mph 47% 0.00 in 65.00 W/m2
06:27 60.9 °F 40.5 °F 29.84 in ESE 4.0 mph 9.0 mph 47% 0.00 in 79.00 W/m2
06:32 60.8 °F 40.5 °F 29.83 in ESE 5.0 mph 11.0 mph 47% 0.00 in 95.00 W/m2
06:37 60.8 °F 40.5 °F 29.83 in ESE 5.0 mph 9.0 mph 47% 0.00 in 107.00 W/m2
06:42 60.8 °F 40.5 °F 29.83 in SE 6.0 mph 12.0 mph 47% 0.00 in 127.00 W/m2
06:47 60.8 °F 40.5 °F 29.84 in ESE 2.0 mph 12.0 mph 47% 0.00 in 144.00 W/m2
06:52 60.8 °F 40.5 °F 29.84 in Calm   15.0 mph 47% 0.00 in 158.00 W/m2
06:57 60.8 °F 41.0 °F 29.84 in ESE 1.0 mph 13.0 mph 48% 0.00 in 172.00 W/m2
07:02 60.8 °F 41.0 °F 29.84 in ESE 6.0 mph 11.0 mph 48% 0.00 in 186.00 W/m2
07:07 60.8 °F 41.5 °F 29.84 in ESE 6.0 mph 12.0 mph 49% 0.00 in 204.00 W/m2
07:12 60.9 °F 42.2 °F 29.84 in Calm   14.0 mph 50% 0.00 in 193.00 W/m2
07:17 60.9 °F 42.2 °F 29.84 in Calm   9.0 mph 50% 0.00 in 232.00 W/m2
07:22 61.0 °F 41.7 °F 29.84 in Calm   11.0 mph 49% 0.00 in 258.00 W/m2
07:27 61.1 °F 41.8 °F 29.84 in SE 5.0 mph 7.0 mph 49% 0.00 in 283.00 W/m2
07:32 61.2 °F 42.4 °F 29.84 in ESE 6.0 mph 9.0 mph 50% 0.00 in 297.00 W/m2
07:37 61.3 °F 43.0 °F 29.84 in ESE 9.0 mph 9.0 mph 51% 0.00 in 325.00 W/m2
07:42 61.4 °F 43.1 °F 29.84 in ESE 11.0 mph 15.0 mph 51% 0.00 in 345.00 W/m2
07:47 61.5 °F 43.2 °F 29.84 in SE 9.0 mph 9.0 mph 51% 0.00 in 359.00 W/m2
07:52 61.6 °F 42.8 °F 29.84 in SE 5.0 mph 11.0 mph 50% 0.00 in 380.00 W/m2
07:57 61.8 °F 43.0 °F 29.84 in Calm   11.0 mph 50% 0.00 in 385.00 W/m2
08:02 62.1 °F 43.8 °F 29.84 in Calm   8.0 mph 51% 0.00 in 413.00 W/m2
08:07 62.3 °F 44.0 °F 29.84 in SE 4.0 mph 6.0 mph 51% 0.00 in 441.00 W/m2
08:12 62.6 °F 44.2 °F 29.84 in SE 1.0 mph 11.0 mph 51% 0.00 in 265.00 W/m2
08:17 62.8 °F 44.4 °F 29.84 in ESE 1.0 mph 11.0 mph 51% 0.00 in 292.00 W/m2
08:22 63.1 °F 44.2 °F 29.84 in SE 2.0 mph 11.0 mph 50% 0.00 in 301.00 W/m2
08:27 63.3 °F 44.9 °F 29.85 in Calm   10.0 mph 51% 0.00 in 478.00 W/m2
08:32 63.5 °F 45.1 °F 29.84 in ESE 1.0 mph 13.0 mph 51% 0.00 in 504.00 W/m2
08:37 63.7 °F 45.2 °F 29.85 in SE 1.0 mph 9.0 mph 51% 0.00 in 540.00 W/m2
08:43 63.9 °F 45.4 °F 29.84 in SE 7.0 mph 8.0 mph 51% 0.00 in 550.00 W/m2
08:48 64.1 °F 44.0 °F 29.84 in SE 1.0 mph 10.0 mph 48% 0.00 in 564.00 W/m2
08:53 64.4 °F 44.8 °F 29.85 in SE 6.0 mph 8.0 mph 49% 0.00 in 575.00 W/m2
08:58 64.8 °F 45.2 °F 29.85 in SE 2.0 mph 10.0 mph 49% 0.00 in 585.00 W/m2
09:03 65.1 °F 46.0 °F 29.85 in SE 4.0 mph 7.0 mph 50% 0.00 in 605.00 W/m2
09:08 65.5 °F 45.3 °F 29.85 in Calm   6.0 mph 48% 0.00 in 621.00 W/m2
09:13 65.8 °F 43.9 °F 29.85 in Calm   1.0 mph 45% 0.00 in 596.00 W/m2
09:18 66.1 °F 44.7 °F 29.85 in SSE 4.0 mph 7.0 mph 46% 0.00 in 461.00 W/m2
09:23 66.5 °F 43.9 °F 29.85 in Calm   5.0 mph 44% 0.00 in 501.00 W/m2
09:25 66.6 °F 44.0 °F 29.85 in Calm   5.0 mph 44% 0.00 in 599.00 W/m2
09:30 67.0 °F 45.0 °F 29.85 in South 5.0 mph 7.0 mph 45% 0.00 in 675.00 W/m2
09:35 67.5 °F 44.2 °F 29.85 in Calm   8.0 mph 43% 0.00 in 687.00 W/m2
09:40 67.9 °F 43.4 °F 29.85 in Calm   5.0 mph 41% 0.00 in 531.00 W/m2
09:45 68.2 °F 43.6 °F 29.85 in Calm   2.0 mph 41% 0.00 in 707.00 W/m2
09:50 68.5 °F 45.1 °F 29.85 in South 4.0 mph 8.0 mph 43% 0.00 in 710.00 W/m2
09:55 68.7 °F 45.3 °F 29.85 in SSE 1.0 mph 6.0 mph 43% 0.00 in 728.00 W/m2
10:01 69.0 °F 45.6 °F 29.85 in South 5.0 mph 10.0 mph 43% 0.00 in 754.00 W/m2
10:06 69.3 °F 46.5 °F 29.85 in SSE 6.0 mph 11.0 mph 44% 0.00 in 772.00 W/m2
10:11 69.6 °F 46.1 °F 29.85 in Calm   6.0 mph 43% 0.00 in 784.00 W/m2
10:16 70.0 °F 47.1 °F 29.85 in Calm   9.0 mph 44% 0.00 in 803.00 W/m2
10:21 70.4 °F 44.3 °F 29.85 in South 4.0 mph 9.0 mph 39% 0.00 in 816.00 W/m2
10:26 70.8 °F 45.3 °F 29.85 in Calm   10.0 mph 40% 0.00 in 835.00 W/m2
10:31 71.1 °F 45.6 °F 29.85 in Calm     40% 0.00 in 800.00 W/m2
10:36 71.6 °F 45.4 °F 29.85 in South 10.0 mph 13.0 mph 39% 0.00 in 854.00 W/m2
10:41 72.0 °F 43.6 °F 29.85 in Calm     36% 0.00 in 895.00 W/m2
10:46 72.3 °F 43.9 °F 29.85 in Calm   2.0 mph 36% 0.00 in 733.00 W/m2
10:51 72.7 °F 45.0 °F 29.85 in South 5.0 mph 6.0 mph 37% 0.00 in 817.00 W/m2
10:56 73.0 °F 44.5 °F 29.85 in SSW 6.0 mph 6.0 mph 36% 0.00 in 626.00 W/m2
11:01 73.3 °F 46.2 °F 29.85 in Calm   8.0 mph 38% 0.00 in 970.00 W/m2
11:05 73.5 °F 45.7 °F 29.85 in SSE 4.0 mph 9.0 mph 37% 0.00 in 434.00 W/m2
11:11 73.7 °F 45.1 °F 29.85 in Calm   8.0 mph 36% 0.00 in 911.00 W/m2
11:16 74.0 °F 44.6 °F 29.85 in SSE 8.0 mph 9.0 mph 35% 0.00 in 930.00 W/m2
11:21 74.2 °F 44.8 °F 29.85 in SSW 1.0 mph 10.0 mph 35% 0.00 in 900.00 W/m2
11:26 74.5 °F 46.5 °F 29.85 in Calm   10.0 mph 37% 0.00 in 737.00 W/m2
11:31 74.7 °F 44.5 °F 29.86 in SSW 6.0 mph 12.0 mph 34% 0.00 in 877.00 W/m2
11:36 74.9 °F 45.4 °F 29.86 in Calm   15.0 mph 35% 0.00 in 1004.00 W/m2
11:41 75.0 °F 44.0 °F 29.86 in Calm   13.0 mph 33% 0.00 in 914.00 W/m2
11:45 75.2 °F 45.7 °F 29.86 in Calm   12.0 mph 35% 0.00 in 874.00 W/m2
11:51 75.4 °F 43.5 °F 29.86 in South 4.0 mph 10.0 mph 32% 0.00 in 875.00 W/m2
11:55 75.6 °F 44.5 °F 29.86 in South 6.0 mph 16.0 mph 33% 0.00 in 1053.00 W/m2
12:01 75.8 °F 43.0 °F 29.86 in SW 7.0 mph 12.0 mph 31% 0.00 in 782.00 W/m2
12:04 75.9 °F 45.5 °F 29.86 in South 1.0 mph 11.0 mph 34% 0.00 in 837.00 W/m2
12:09 76.0 °F 44.8 °F 29.86 in SW 7.0 mph 14.0 mph 33% 0.00 in 1063.00 W/m2
12:14 76.1 °F 46.5 °F 29.86 in South 11.0 mph 11.0 mph 35% 0.00 in 1062.00 W/m2
12:19 76.4 °F 46.0 °F 29.86 in SW 8.0 mph 9.0 mph 34% 0.00 in 754.00 W/m2
12:24 76.6 °F 45.4 °F 29.86 in SW 7.0 mph 13.0 mph 33% 0.00 in 450.00 W/m2
12:29 76.5 °F 43.7 °F 29.86 in South 1.0 mph 13.0 mph 31% 0.00 in 471.00 W/m2
12:34 76.4 °F 44.4 °F 29.86 in SW 3.0 mph 12.0 mph 32% 0.00 in 424.00 W/m2
12:39 76.1 °F 44.9 °F 29.86 in Calm   5.0 mph 33% 0.00 in 490.00 W/m2
12:44 76.0 °F 44.0 °F 29.86 in Calm   7.0 mph 32% 0.00 in 624.00 W/m2
12:49 75.8 °F 43.9 °F 29.86 in Calm   14.0 mph 32% 0.00 in 520.00 W/m2
12:54 75.8 °F 44.7 °F 29.86 in South 8.0 mph 10.0 mph 33% 0.00 in 1035.00 W/m2
12:59 75.8 °F 43.9 °F 29.86 in Calm   10.0 mph 32% 0.00 in 1041.00 W/m2
13:04 75.9 °F 42.3 °F 29.86 in SSW 7.0 mph 12.0 mph 30% 0.00 in 735.00 W/m2
13:09 75.9 °F 43.1 °F 29.86 in Calm   13.0 mph 31% 0.00 in 693.00 W/m2
13:14 75.9 °F 42.3 °F 29.86 in SSE 8.0 mph 13.0 mph 30% 0.00 in 731.00 W/m2
13:19 75.8 °F 43.9 °F 29.86 in SSW 2.0 mph 14.0 mph 32% 0.00 in 399.00 W/m2
13:24 75.7 °F 43.8 °F 29.86 in South 4.0 mph 12.0 mph 32% 0.00 in 441.00 W/m2
13:29 75.6 °F 43.7 °F 29.86 in South 3.0 mph 10.0 mph 32% 0.00 in 744.00 W/m2
13:34 75.6 °F 45.3 °F 29.86 in Calm   11.0 mph 34% 0.00 in 911.00 W/m2
13:39 75.7 °F 46.9 °F 29.86 in SSW 10.0 mph 11.0 mph 36% 0.00 in 452.00 W/m2
13:44 75.7 °F 45.4 °F 29.86 in SW 9.0 mph 12.0 mph 34% 0.00 in 724.00 W/m2
13:49 75.6 °F 46.8 °F 29.86 in Calm   8.0 mph 36% 0.00 in 622.00 W/m2
13:54 75.5 °F 47.4 °F 29.86 in SW 2.0 mph 9.0 mph 37% 0.00 in 912.00 W/m2
13:59 75.6 °F 48.2 °F 29.86 in SSW 12.0 mph 12.0 mph 38% 0.00 in 1034.00 W/m2
14:04 75.8 °F 46.2 °F 29.86 in SSE 8.0 mph 13.0 mph 35% 0.00 in 858.00 W/m2
14:09 76.1 °F 45.7 °F 29.86 in South 7.0 mph 10.0 mph 34% 0.00 in 1046.00 W/m2
14:14 76.5 °F 46.1 °F 29.85 in SSW 4.0 mph 13.0 mph 34% 0.00 in 696.00 W/m2
14:19 76.8 °F 46.3 °F 29.86 in South 2.0 mph 12.0 mph 34% 0.00 in 782.00 W/m2
14:24 76.9 °F 44.8 °F 29.86 in Calm   9.0 mph 32% 0.00 in 480.00 W/m2
14:29 76.9 °F 45.6 °F 29.86 in South 4.0 mph 11.0 mph 33% 0.00 in 429.00 W/m2
14:34 76.8 °F 45.5 °F 29.86 in South 7.0 mph 10.0 mph 33% 0.00 in 643.00 W/m2
14:39 76.7 °F 47.0 °F 29.86 in SSW 1.0 mph 6.0 mph 35% 0.00 in 559.00 W/m2
14:44 76.5 °F 46.1 °F 29.85 in Calm   9.0 mph 34% 0.00 in 780.00 W/m2
14:49 76.4 °F 46.0 °F 29.85 in South 5.0 mph 12.0 mph 34% 0.00 in 664.00 W/m2
14:54 76.3 °F 46.7 °F 29.85 in Calm   11.0 mph 35% 0.00 in 870.00 W/m2
14:59 76.2 °F 45.0 °F 29.85 in Calm   7.0 mph 33% 0.00 in 598.00 W/m2
15:04 76.1 °F 45.7 °F 29.85 in SSW 7.0 mph 9.0 mph 34% 0.00 in 482.00 W/m2
15:09 76.0 °F 44.0 °F 29.85 in Calm   9.0 mph 32% 0.00 in 552.00 W/m2
15:14 75.8 °F 46.2 °F 29.85 in SSW 5.0 mph 10.0 mph 35% 0.00 in 490.00 W/m2
15:19 75.7 °F 45.4 °F 29.85 in Calm   10.0 mph 34% 0.00 in 431.00 W/m2
15:24 75.5 °F 45.2 °F 29.85 in Calm   6.0 mph 34% 0.00 in 689.00 W/m2
15:29 75.3 °F 45.0 °F 29.84 in SSW 7.0 mph 10.0 mph 34% 0.00 in 559.00 W/m2
15:34 75.2 °F 44.9 °F 29.85 in SSW 4.0 mph 10.0 mph 34% 0.00 in 343.00 W/m2
15:39 74.9 °F 45.4 °F 29.85 in SSW 7.0 mph 10.0 mph 35% 0.00 in 283.00 W/m2
15:44 74.8 °F 45.3 °F 29.85 in SSW 1.0 mph 6.0 mph 35% 0.00 in 274.00 W/m2
15:49 74.5 °F 45.1 °F 29.85 in SSW 3.0 mph 7.0 mph 35% 0.00 in 292.00 W/m2
15:54 74.3 °F 45.7 °F 29.85 in SSW 1.0 mph 9.0 mph 36% 0.00 in 315.00 W/m2
16:00 74.0 °F 45.4 °F 29.85 in SW 6.0 mph 7.0 mph 36% 0.00 in 608.00 W/m2
16:05 73.8 °F 45.2 °F 29.85 in SW 10.0 mph 10.0 mph 36% 0.00 in 650.00 W/m2
16:10 73.7 °F 46.5 °F 29.85 in WSW 6.0 mph 9.0 mph 38% 0.00 in 496.00 W/m2
16:11 73.6 °F 45.8 °F 29.85 in SSW 9.0 mph 11.0 mph 37% 0.00 in 580.00 W/m2
16:16 73.5 °F 44.9 °F 29.85 in SSW 6.0 mph 8.0 mph 36% 0.00 in 427.00 W/m2
16:21 73.5 °F 44.9 °F 29.85 in Calm   7.0 mph 36% 0.00 in 374.00 W/m2
16:26 73.5 °F 44.2 °F 29.85 in Calm   10.0 mph 35% 0.00 in 352.00 W/m2
16:31 73.4 °F 43.3 °F 29.85 in SW 9.0 mph 9.0 mph 34% 0.00 in 236.00 W/m2
16:36 73.4 °F 44.8 °F 29.85 in SSW 8.0 mph 8.0 mph 36% 0.00 in 223.00 W/m2
16:41 73.3 °F 44.8 °F 29.85 in South 6.0 mph 11.0 mph 36% 0.00 in 258.00 W/m2
16:47 73.2 °F 43.9 °F 29.85 in Calm   7.0 mph 35% 0.00 in 301.00 W/m2
16:52 73.1 °F 44.6 °F 29.85 in Calm   6.0 mph 36% 0.00 in 429.00 W/m2
16:57 73.0 °F 44.5 °F 29.85 in Calm   6.0 mph 36% 0.00 in 608.00 W/m2
17:02 72.9 °F 44.4 °F 29.85 in South 5.0 mph 7.0 mph 36% 0.00 in 624.00 W/m2
17:07 72.9 °F 43.7 °F 29.84 in South 11.0 mph 12.0 mph 35% 0.00 in 715.00 W/m2
17:12 73.0 °F 42.2 °F 29.85 in Calm   10.0 mph 33% 0.00 in 659.00 W/m2
17:17 73.0 °F 42.2 °F 29.85 in SSW 2.0 mph 9.0 mph 33% 0.00 in 527.00 W/m2
17:22 73.0 °F 43.0 °F 29.85 in South 4.0 mph 7.0 mph 34% 0.00 in 476.00 W/m2
17:27 73.0 °F 43.0 °F 29.84 in South 4.0 mph 11.0 mph 34% 0.00 in 332.00 W/m2
17:32 73.0 °F 43.8 °F 29.84 in South 9.0 mph 11.0 mph 35% 0.00 in 239.00 W/m2
17:37 72.9 °F 43.7 °F 29.84 in SSE 4.0 mph 6.0 mph 35% 0.00 in 404.00 W/m2
17:42 72.8 °F 45.0 °F 29.84 in South 7.0 mph 9.0 mph 37% 0.00 in 225.00 W/m2
17:47 72.7 °F 44.2 °F 29.83 in South 2.0 mph 8.0 mph 36% 0.00 in 146.00 W/m2
17:52 72.6 °F 44.9 °F 29.83 in South 3.0 mph 8.0 mph 37% 0.00 in 121.00 W/m2
17:57 72.5 °F 46.2 °F 29.83 in Calm   6.0 mph 39% 0.00 in 118.00 W/m2
18:02 72.3 °F 46.7 °F 29.83 in Calm   8.0 mph 40% 0.00 in 123.00 W/m2
18:07 72.1 °F 45.1 °F 29.84 in SSW 5.0 mph 8.0 mph 38% 0.00 in 123.00 W/m2
18:12 71.9 °F 44.9 °F 29.84 in Calm   7.0 mph 38% 0.00 in 135.00 W/m2
18:17 71.7 °F 45.5 °F 29.84 in Calm   7.0 mph 39% 0.00 in 125.00 W/m2
18:22 71.5 °F 46.6 °F 29.84 in SSW 4.0 mph 6.0 mph 41% 0.00 in 105.00 W/m2
18:27 71.3 °F 45.8 °F 29.84 in South 9.0 mph 9.0 mph 40% 0.00 in 102.00 W/m2
18:32 71.1 °F 46.2 °F 29.83 in South 2.0 mph 5.0 mph 41% 0.00 in 120.00 W/m2
18:37 70.9 °F 46.7 °F 29.83 in South 3.0 mph 6.0 mph 42% 0.00 in 142.00 W/m2
18:42 70.6 °F 46.4 °F 29.83 in Calm   7.0 mph 42% 0.00 in 155.00 W/m2
18:47 70.5 °F 46.3 °F 29.83 in South 4.0 mph 10.0 mph 42% 0.00 in 135.00 W/m2
18:52 70.4 °F 46.2 °F 29.84 in South 3.0 mph 9.0 mph 42% 0.00 in 111.00 W/m2
18:57 70.3 °F 46.2 °F 29.84 in South 6.0 mph 9.0 mph 42% 0.00 in 90.00 W/m2
19:02 70.1 °F 46.0 °F 29.83 in South 5.0 mph 7.0 mph 42% 0.00 in 81.00 W/m2
19:07 70.1 °F 46.0 °F 29.83 in Calm   9.0 mph 42% 0.00 in 76.00 W/m2
19:12 69.9 °F 46.4 °F 29.83 in SSE 5.0 mph 10.0 mph 43% 0.00 in 63.00 W/m2
19:17 69.8 °F 46.3 °F 29.83 in South 7.0 mph 10.0 mph 43% 0.00 in 47.00 W/m2
19:22 69.7 °F 46.2 °F 29.84 in South 7.0 mph 8.0 mph 43% 0.00 in 33.00 W/m2
19:27 69.5 °F 46.7 °F 29.84 in South 2.0 mph 9.0 mph 44% 0.00 in 28.00 W/m2
19:32 69.3 °F 46.5 °F 29.84 in South 6.0 mph 10.0 mph 44% 0.00 in 23.00 W/m2
19:37 69.1 °F 46.9 °F 29.83 in South 6.0 mph 11.0 mph 45% 0.00 in 18.00 W/m2
19:48 68.7 °F 47.1 °F 29.84 in South 7.0 mph 9.0 mph 46% 0.00 in 21.00 W/m2
19:53 68.5 °F 46.9 °F 29.84 in South 9.0 mph 9.0 mph 46% 0.00 in 21.00 W/m2
19:58 68.3 °F 47.3 °F 29.85 in Calm   13.0 mph 47% 0.00 in 18.00 W/m2
20:03 68.1 °F 47.7 °F 29.85 in Calm   9.0 mph 48% 0.00 in 14.00 W/m2
20:08 67.9 °F 47.5 °F 29.85 in SSW 5.0 mph 10.0 mph 48% 0.00 in 12.00 W/m2
20:13 67.7 °F 47.3 °F 29.85 in Calm   8.0 mph 48% 0.00 in 9.00 W/m2
20:18 67.5 °F 47.1 °F 29.85 in Calm   8.0 mph 48% 0.00 in 5.00 W/m2
20:23 67.3 °F 47.5 °F 29.85 in Calm   8.0 mph 49% 0.00 in 0.00 W/m2
20:28 67.0 °F 47.2 °F 29.85 in South 5.0 mph 8.0 mph 49% 0.00 in 0.00 W/m2
20:33 66.8 °F 47.0 °F 29.85 in Calm   10.0 mph 49% 0.00 in 0.00 W/m2
20:38 66.5 °F 47.3 °F 29.86 in South 2.0 mph 8.0 mph 50% 0.00 in 0.00 W/m2
20:43 66.2 °F 47.6 °F 29.86 in South 4.0 mph 7.0 mph 51% 0.00 in 0.00 W/m2
20:48 65.9 °F 47.3 °F 29.86 in South 6.0 mph 7.0 mph 51% 0.00 in 0.00 W/m2
20:53 65.7 °F 47.6 °F 29.86 in South 1.0 mph 11.0 mph 52% 0.00 in 0.00 W/m2
20:58 65.4 °F 47.3 °F 29.86 in South 4.0 mph 8.0 mph 52% 0.00 in 0.00 W/m2
21:03 65.1 °F 47.1 °F 29.87 in South 4.0 mph 8.0 mph 52% 0.00 in 0.00 W/m2
21:08 64.9 °F 47.4 °F 29.87 in South 1.0 mph 10.0 mph 53% 0.00 in 0.00 W/m2
21:13 64.6 °F 47.1 °F 29.87 in Calm   8.0 mph 53% 0.00 in 0.00 W/m2
21:18 64.3 °F 47.3 °F 29.87 in SSE 2.0 mph 8.0 mph 54% 0.00 in 0.00 W/m2
21:23 64.1 °F 47.6 °F 29.87 in SSE 1.0 mph 10.0 mph 55% 0.00 in 0.00 W/m2
21:28 63.8 °F 47.8 °F 29.88 in Calm     56% 0.00 in 0.00 W/m2
21:33 63.6 °F 48.1 °F 29.88 in Calm     57% 0.00 in 0.00 W/m2
21:38 63.4 °F 47.9 °F 29.88 in Calm     57% 0.00 in 0.00 W/m2
21:43 63.2 °F 47.7 °F 29.88 in Calm   7.0 mph 57% 0.00 in 0.00 W/m2
21:48 62.9 °F 47.9 °F 29.88 in Calm     58% 0.00 in 0.00 W/m2
21:53 62.7 °F 47.7 °F 29.88 in SSE 6.0 mph 8.0 mph 58% 0.00 in 0.00 W/m2
21:58 62.5 °F 48.0 °F 29.88 in SSE 5.0 mph 9.0 mph 59% 0.00 in 0.00 W/m2
22:03 62.3 °F 47.8 °F 29.88 in SE 6.0 mph 11.0 mph 59% 0.00 in 0.00 W/m2
22:09 62.1 °F 47.6 °F 29.87 in SE 4.0 mph 7.0 mph 59% 0.00 in 0.00 W/m2
22:14 62.0 °F 47.5 °F 29.87 in Calm   12.0 mph 59% 0.00 in 0.00 W/m2
22:19 61.9 °F 47.4 °F 29.88 in SE 8.0 mph 10.0 mph 59% 0.00 in 0.00 W/m2
22:24 61.8 °F 47.3 °F 29.87 in SE 5.0 mph 10.0 mph 59% 0.00 in 0.00 W/m2
22:29 61.6 °F 47.2 °F 29.87 in SE 2.0 mph 9.0 mph 59% 0.00 in 0.00 W/m2
22:34 61.5 °F 47.1 °F 29.88 in Calm   12.0 mph 59% 0.00 in 0.00 W/m2
22:39 61.4 °F 47.0 °F 29.88 in SE 7.0 mph 11.0 mph 59% 0.00 in 0.00 W/m2
22:44 61.4 °F 47.0 °F 29.88 in SE 5.0 mph 8.0 mph 59% 0.00 in 0.00 W/m2
22:49 61.3 °F 46.4 °F 29.88 in SE 7.0 mph 11.0 mph 58% 0.00 in 0.00 W/m2
22:54 61.2 °F 45.4 °F 29.88 in SE 5.0 mph 9.0 mph 56% 0.00 in 0.00 W/m2
22:59 61.2 °F 45.9 °F 29.88 in SE 6.0 mph 9.0 mph 57% 0.00 in 0.00 W/m2
23:04 61.1 °F 45.3 °F 29.88 in SE 4.0 mph 12.0 mph 56% 0.00 in 0.00 W/m2
23:09 61.1 °F 44.8 °F 29.88 in SE 8.0 mph 12.0 mph 55% 0.00 in 0.00 W/m2
23:14 61.0 °F 44.2 °F 29.88 in SE 7.0 mph 9.0 mph 54% 0.00 in 0.00 W/m2
23:19 61.0 °F 43.3 °F 29.88 in SE 7.0 mph 10.0 mph 52% 0.00 in 0.00 W/m2
23:24 61.0 °F 43.3 °F 29.88 in Calm   10.0 mph 52% 0.00 in 0.00 W/m2
23:29 61.0 °F 42.8 °F 29.88 in SE 5.0 mph 8.0 mph 51% 0.00 in 0.00 W/m2
23:34 61.1 °F 42.8 °F 29.88 in SE 6.0 mph 10.0 mph 51% 0.00 in 0.00 W/m2
23:39 61.1 °F 42.8 °F 29.88 in SE 4.0 mph 9.0 mph 51% 0.00 in 0.00 W/m2
23:44 61.1 °F 42.8 °F 29.87 in SE 2.0 mph 8.0 mph 51% 0.00 in 0.00 W/m2
23:49 61.1 °F 42.8 °F 29.88 in SE 5.0 mph 7.0 mph 51% 0.00 in 0.00 W/m2
23:54 61.0 °F 43.3 °F 29.88 in Calm   5.0 mph 52% 0.00 in 0.00 W/m2
23:59 61.0 °F 43.8 °F 29.88 in SE 2.0 mph 7.0 mph 53% 0.00 in 0.00 W/m2
Foresthill Weather
 WU-history PHP script courtesy of   Juneau County Weather.
powered by Cumulus v1.9.3 (1059)
Ambient Weather VWS v14.00
Top Contact Website Map Copyright © 2007 - 2018 Foresthillweather.com Never base important decisions on this or any weather information obtained from the Internet